GW0270 Weather Reports


time (UTC)temp
C
wind
direction
speed
KPH
gust
KPH
rain 1hr
cm
rain 24hr
cm
rain mn
cm
humidity
%
barometer
mb
20260507100037 5 0 0.0 0.0 0.00 1.09 0.00 95 1006.8
20260507095514 5 0 0.0 0.0 0.00 1.09 0.00 95 1007.0
20260507095016 5 0 0.0 0.0 0.00 1.09 0.00 95 1007.0
20260507094532 5 0 0.0 0.0 0.00 1.09 0.00 95 1007.1
20260507094015 5 0 0.0 0.0 0.00 1.09 0.00 95 1007.0
20260507093518 5 0 0.0 0.0 0.00 1.09 0.00 95 1007.0
20260507093033 5 0 0.0 0.0 0.00 1.09 0.00 95 1007.1
20260507092516 5 0 0.0 0.0 0.00 1.09 0.00 95 1007.1
20260507092016 5 0 0.0 0.0 0.00 1.09 0.00 95 1007.1
20260507091532 5 0 0.0 0.0 0.00 1.09 0.00 95 1006.9
20260507091017 5 0 0.0 0.0 0.00 1.09 0.00 94 1007.2
20260507090516 5 0 0.0 0.0 0.00 1.09 0.00 95 1007.2
20260507090031 5 0 0.0 0.0 0.00 1.09 0.00 94 1007.3
20260507085514 5 0 0.0 0.0 0.00 1.09 0.00 95 1007.4
20260507085015 5 0 0.0 1.6 0.00 1.09 0.00 95 1007.4
20260507084535 5 0 0.0 1.6 0.00 1.09 0.00 95 1007.4
20260507084014 5 0 0.0 0.0 0.00 1.09 0.00 95 1007.3
20260507083516 5 0 0.0 3.2 0.00 1.09 0.00 95 1007.2
20260507083030 6 0 0.0 3.2 0.00 1.09 0.00 95 1006.9
20260507082518 6 0 0.0 0.0 0.00 1.09 0.00 95 1006.9
20260507082016 6 0 0.0 3.2 0.00 1.09 0.00 95 1006.9
20260507081536 6 0 0.0 3.2 0.00 1.09 0.00 95 1007.0
20260507081014 6 0 0.0 0.0 0.00 1.09 0.00 95 1007.0
20260507080518 6 0 0.0 0.0 0.00 1.09 0.00 95 1006.9
20260507080037 6 0 0.0 3.2 0.00 1.09 0.00 95 1006.9
20260507075514 6 0 0.0 3.2 0.00 1.09 0.00 95 1007.0
20260507075015 6 0 0.0 0.0 0.00 1.09 0.00 95 1007.0
20260507074533 6 0 0.0 0.0 0.00 1.09 0.00 95 1006.9
20260507074015 6 0 0.0 0.0 0.00 1.09 0.00 95 1007.0
20260507073516 6 0 0.0 0.0 0.00 1.09 0.00 95 1007.0
20260507073032 6 0 0.0 0.0 0.00 1.09 0.00 95 1006.9
20260507072512 6 0 0.0 0.0 0.00 1.09 0.00 95 1007.0
20260507072011 6 0 0.0 0.0 0.00 1.09 0.00 95 1006.9
20260507071533 6 0 0.0 0.0 0.00 1.09 0.00 95 1007.1
20260507071014 6 0 0.0 0.0 0.00 1.09 0.00 94 1007.1
20260507070511 6 0 0.0 0.0 0.00 1.09 0.00 95 1006.9
20260507070033 6 0 0.0 0.0 0.00 1.09 0.00 95 1006.8
20260507065513 6 0 0.0 0.0 0.00 1.09 0.00 95 1006.5
20260507065011 6 0 0.0 0.0 0.00 1.09 0.00 94 1006.6
20260507064540 6 0 0.0 0.0 0.00 1.09 0.00 94 1006.7
20260507064013 6 0 0.0 0.0 0.00 1.09 0.00 94 1006.5
20260507063515 6 0 0.0 0.0 0.00 1.09 0.00 94 1006.4
20260507063030 6 0 0.0 3.2 0.00 1.09 0.00 94 1006.2
20260507062513 6 0 0.0 3.2 0.00 1.09 0.00 94 1006.4
20260507062012 6 303 0.0 3.2 0.00 1.09 0.00 94 1006.6
20260507061537 6 0 0.0 6.4 0.00 1.09 0.00 94 1006.7
20260507061013 6 0 0.0 6.4 0.00 1.09 0.00 94 1007.0
20260507060512 6 304 0.0 3.2 0.00 1.09 0.00 94 1007.0
20260507060030 6 0 0.0 0.0 0.00 1.09 0.00 94 1006.9
20260507055512 6 0 0.0 8.0 0.00 1.09 0.00 94 1006.7
20260507055012 7 0 0.0 8.0 0.00 1.09 0.00 94 1007.0
20260507054530 7 303 1.6 4.8 0.00 1.09 0.00 94 1007.2
20260507054014 7 0 0.0 3.2 0.00 1.09 0.00 94 1007.2
20260507053511 7 0 0.0 3.2 0.00 1.09 0.00 94 1007.1
20260507053033 7 0 0.0 4.8 0.00 1.09 0.00 94 1007.3
20260507052513 7 271 0.0 4.8 0.00 1.09 0.00 94 1007.5
20260507052013 7 0 0.0 4.8 0.00 1.09 0.00 94 1007.3
20260507051530 7 0 0.0 11.3 0.00 1.09 0.00 94 1007.5
20260507051011 7 0 1.6 11.3 0.00 1.09 0.00 94 1007.4
20260507050515 7 0 0.0 1.6 0.00 1.09 0.00 94 1007.1
20260507050032 7 0 0.0 9.7 0.00 1.09 0.00 94 1007.0
20260507045514 7 0 1.6 9.7 0.00 1.09 0.00 94 1007.0
20260507045013 7 270 3.2 6.4 0.00 1.09 0.00 94 1007.1
20260507044533 7 270 3.2 4.8 0.00 1.09 0.00 94 1006.9
20260507044012 7 0 0.0 3.2 0.00 1.09 0.00 94 1006.9
20260507043514 7 270 0.0 1.6 0.00 1.09 0.00 94 1007.2
20260507043032 7 0 0.0 0.0 0.00 1.09 0.00 94 1007.0
20260507042514 7 0 0.0 6.4 0.00 1.09 0.00 93 1006.7
20260507042013 7 0 0.0 6.4 0.00 1.09 0.00 93 1006.7
20260507041536 7 0 0.0 6.4 0.00 1.09 0.00 93 1006.9
20260507041014 7 0 0.0 0.0 0.00 1.09 0.00 93 1007.1
20260507040510 7 0 0.0 0.0 0.00 1.09 0.00 93 1007.2
20260507040032 7 0 0.0 4.8 0.00 1.09 0.00 93 1007.2
20260507035513 7 0 0.0 4.8 0.00 1.09 1.09 93 1007.0
20260507035013 7 0 0.0 4.8 0.00 1.09 1.09 93 1007.0
20260507034535 7 0 0.0 4.8 0.00 1.09 1.09 93 1007.0
20260507034009 7 0 0.0 4.8 0.00 1.09 1.09 93 1007.2
20260507033514 7 0 0.0 4.8 0.03 1.09 1.09 93 1007.1
20260507033027 7 0 0.0 4.8 0.03 1.09 1.09 93 1007.0
20260507032516 7 0 0.0 4.8 0.03 1.09 1.09 93 1007.0
20260507032011 8 318 1.6 4.8 0.03 1.09 1.09 93 1007.1
20260507031531 8 0 0.0 6.4 0.05 1.09 1.09 93 1007.2
20260507031013 8 318 3.2 6.4 0.05 1.09 1.09 93 1007.3
20260507030512 8 318 0.0 8.0 0.05 1.09 1.09 93 1007.2
20260507030028 8 0 1.6 8.0 0.05 1.09 1.09 93 1007.2
20260507025510 8 0 1.6 6.4 0.05 1.09 1.09 93 1007.3
20260507025011 8 0 0.0 8.0 0.05 1.09 1.09 92 1007.2
20260507024531 8 0 0.0 8.0 0.05 1.09 1.09 92 1007.2
20260507024011 8 0 0.0 3.2 0.05 1.07 1.07 92 1007.3
20260507023513 8 0 0.0 3.2 0.05 1.07 1.07 92 1007.4
20260507023028 8 0 0.0 0.0 0.05 1.07 1.07 92 1007.3
20260507022516 8 0 0.0 1.6 0.05 1.07 1.07 92 1007.2
20260507022011 8 0 0.0 1.6 0.05 1.07 1.07 92 1007.3
20260507021528 8 0 0.0 3.2 0.03 1.04 1.04 92 1007.3
20260507021017 8 0 0.0 6.4 0.03 1.04 1.04 92 1007.3
20260507020511 8 0 0.0 6.4 0.03 1.04 1.04 92 1007.3
20260507020032 9 0 0.0 4.8 0.03 1.04 1.04 92 1007.3
20260507015512 9 0 0.0 4.8 0.03 1.04 1.04 92 1007.1
20260507015012 9 0 0.0 6.4 0.03 1.04 1.04 92 1007.2
20260507014531 9 296 1.6 12.9 0.03 1.04 1.04 91 1007.2
20260507014011 9 0 0.0 12.9 0.00 1.02 1.02 91 1007.0
20260507013510 10 305 4.8 20.9 0.00 1.02 1.02 91 1007.1
20260507013028 10 323 6.4 20.9 0.00 1.02 1.02 92 1007.1
20260507012512 10 296 6.4 16.1 0.00 1.02 1.02 92 1006.9
20260507012012 10 288 4.8 12.9 0.00 1.02 1.02 92 1006.8
20260507011533 10 301 1.6 9.7 0.00 1.02 1.02 92 1006.5
20260507011011 11 0 1.6 11.3 0.00 1.02 1.02 92 1006.2
20260507010530 11 278 3.2 11.3 0.00 1.02 1.02 93 1006.1
20260507010037 11 251 0.0 12.9 0.00 1.02 1.02 93 1006.0
20260507005516 11 0 3.2 12.9 0.00 1.02 1.02 93 1006.0
20260507005014 11 244 0.0 8.0 0.00 1.02 1.02 93 1005.9
20260507004530 11 0 0.0 6.4 0.00 1.02 1.02 93 1005.8
20260507004013 11 324 0.0 9.7 0.00 1.02 1.02 93 1005.6
20260507003512 11 0 1.6 9.7 0.00 1.02 1.02 93 1005.4
20260507003031 11 324 3.2 9.7 0.00 1.02 1.02 93 1005.5
20260507002514 12 300 4.8 9.7 0.00 1.02 1.02 93 1005.3
20260507002014 12 325 0.0 8.0 0.00 1.02 1.02 93 1005.2
20260507001537 12 0 0.0 8.0 0.03 1.02 1.02 93 1005.1
20260507001012 12 0 0.0 8.0 0.03 1.02 1.02 93 1005.0
20260507000514 12 304 0.0 6.4 0.03 1.02 1.02 94 1004.7
20260507000032 12 0 0.0 8.0 0.03 1.02 1.02 94 1004.6
20260506235511 12 0 0.0 12.9 0.05 1.02 1.02 94 1004.4
20260506235019 13 290 4.8 12.9 0.08 1.02 1.02 94 1004.4
20260506234544 13 278 4.8 14.5 0.08 1.02 1.02 94 1004.4
20260506234017 13 287 4.8 17.7 0.08 1.02 1.02 94 1004.3
20260506233514 13 295 8.0 17.7 0.08 1.02 1.02 95 1004.3
20260506233029 14 335 8.0 16.1 0.08 1.02 1.02 96 1004.2
20260506232514 14 0 0.0 4.8 0.08 1.02 1.02 96 1003.8
20260506232013 14 0 0.0 1.6 0.08 1.02 1.02 96 1003.7
20260506231535 14 0 0.0 3.2 0.05 0.99 0.99 96 1003.7
20260506231014 14 0 0.0 3.2 0.05 0.99 0.99 96 1003.6
20260506230511 14 0 0.0 3.2 0.05 0.99 0.99 96 1003.5
20260506230031 14 0 0.0 0.0 0.05 0.99 0.99 96 1003.3
20260506225513 14 0 0.0 0.0 0.03 0.97 0.97 96 1003.0
20260506225012 14 0 0.0 6.4 0.00 0.94 0.94 96 1003.0
20260506224530 14 0 0.0 6.4 0.00 0.94 0.94 96 1003.1
20260506224011 14 0 0.0 8.0 0.00 0.94 0.94 96 1003.1
20260506223511 14 0 0.0 11.3 0.00 0.94 0.94 96 1003.0
20260506223032 14 224 1.6 11.3 0.00 0.94 0.94 95 1003.1
20260506222513 14 0 0.0 8.0 0.00 0.94 0.94 95 1003.0
20260506222011 14 0 0.0 8.0 0.00 0.94 0.94 95 1003.1
20260506221531 15 150 1.6 9.7 0.00 0.94 0.94 95 1003.1
20260506221014 15 0 0.0 9.7 0.00 0.94 0.94 95 1003.1
20260506220514 15 0 0.0 12.9 0.00 0.94 0.94 95 1003.1
20260506220035 15 0 0.0 12.9 0.00 0.94 0.94 95 1003.0
20260506215514 15 229 0.0 12.9 0.03 0.94 0.94 95 1002.9
20260506215014 15 0 0.0 11.3 0.03 0.94 0.94 95 1002.9
20260506214531 15 0 0.0 11.3 0.03 0.94 0.94 95 1002.9
20260506214012 15 341 0.0 8.0 0.03 0.94 0.94 95 1002.9
20260506213514 15 0 0.0 8.0 0.03 0.94 0.94 95 1003.0
20260506213030 15 0 0.0 8.0 0.03 0.94 0.94 95 1003.1
20260506212516 15 0 0.0 9.7 0.03 0.94 0.94 95 1003.1
20260506212015 15 213 0.0 9.7 0.03 0.94 0.94 95 1003.1
20260506211531 15 0 0.0 6.4 0.03 0.94 0.94 95 1003.1
20260506211014 15 0 0.0 6.4 0.03 0.94 0.94 95 1003.2
20260506210515 15 0 0.0 11.3 0.03 0.94 0.94 95 1003.2
20260506210030 15 0 0.0 11.3 0.03 0.94 0.94 95 1003.1
20260506205514 15 0 0.0 14.5 0.03 0.91 0.91 95 1003.2
20260506205014 15 0 1.6 14.5 0.03 0.91 0.91 95 1003.2
20260506204533 15 0 0.0 1.6 0.03 0.91 0.91 95 1003.3
20260506204015 15 0 0.0 14.5 0.03 0.91 0.91 95 1003.3
20260506203515 15 0 1.6 17.7 0.03 0.91 0.91 95 1003.3
20260506203031 15 0 1.6 17.7 0.03 0.91 0.91 95 1003.4
20260506202516 15 0 0.0 6.4 0.03 0.91 0.91 95 1003.3
20260506202013 15 0 0.0 8.0 0.03 0.91 0.91 95 1003.3
20260506201531 15 0 0.0 8.0 0.03 0.91 0.91 94 1003.3
20260506201011 15 0 0.0 8.0 0.03 0.91 0.91 94 1003.4
20260506200514 15 138 0.0 8.0 0.03 0.91 0.91 94 1003.5
20260506200030 15 0 0.0 9.7 0.05 0.91 0.91 94 1003.5
20260506195513 15 0 0.0 11.3 0.03 0.89 0.89 94 1003.6
20260506195015 15 0 0.0 11.3 0.05 0.89 0.89 94 1003.7
20260506194535 15 235 0.0 4.8 0.05 0.89 0.89 94 1003.7
20260506194018 15 0 0.0 1.6 0.08 0.89 0.89 94 1003.7
20260506193515 15 0 0.0 3.2 0.13 0.89 0.89 94 1003.7
20260506193031 15 0 0.0 8.0 0.18 0.89 0.89 94 1003.8
20260506192514 15 0 0.0 9.7 0.28 0.89 0.89 94 1003.8
20260506192011 15 205 0.0 9.7 0.30 0.89 0.89 94 1003.8
20260506191531 15 0 0.0 3.2 0.38 0.89 0.89 94 1004.0
20260506191015 15 0 0.0 4.8 0.43 0.89 0.89 94 1003.9
20260506190512 15 0 0.0 4.8 0.43 0.86 0.86 94 1003.9
20260506190031 15 0 0.0 0.0 0.43 0.86 0.86 94 1003.9
20260506185514 15 0 0.0 0.0 0.46 0.86 0.86 94 1004.0
20260506185012 15 0 0.0 0.0 0.46 0.84 0.84 93 1004.1
20260506184530 15 0 0.0 0.0 0.46 0.84 0.84 93 1004.1
20260506184009 15 0 0.0 3.2 0.46 0.81 0.81 93 1004.1
20260506183511 15 0 0.0 6.4 0.43 0.76 0.76 93 1004.3
20260506183029 15 0 0.0 6.4 0.36 0.69 0.69 93 1004.4
20260506182512 15 0 0.0 4.8 0.30 0.61 0.61 93 1004.4
20260506182016 15 0 0.0 4.8 0.28 0.56 0.56 93 1004.5
20260506181530 15 0 0.0 0.0 0.23 0.48 0.48 93 1004.7
20260506181011 15 0 0.0 0.0 0.23 0.46 0.46 93 1004.7
20260506180513 15 0 0.0 0.0 0.23 0.43 0.43 93 1004.7
20260506180028 15 0 0.0 0.0 0.25 0.43 0.43 93 1004.7
20260506175512 15 0 0.0 1.6 0.25 0.41 0.41 93 1004.8
20260506175014 15 0 0.0 1.6 0.25 0.38 0.38 92 1005.0
20260506174529 15 0 0.0 3.2 0.25 0.38 0.38 92 1005.1
20260506174013 15 0 0.0 3.2 0.25 0.36 0.36 92 1005.3
20260506173510 15 0 0.0 4.8 0.25 0.33 0.33 92 1005.4
20260506173035 15 0 0.0 4.8 0.25 0.33 0.33 91 1005.4
20260506172512 15 201 0.0 4.8 0.25 0.30 0.30 91 1005.5
20260506172013 15 0 0.0 9.7 0.23 0.28 0.28 91 1005.6
20260506171530 15 0 0.0 9.7 0.20 0.25 0.25 91 1005.8
20260506171013 15 0 0.0 6.4 0.20 0.23 0.23 91 1005.7
20260506170514 15 0 0.0 6.4 0.15 0.18 0.18 90 1005.7
20260506170027 15 215 0.0 6.4 0.15 0.18 0.18 91 1005.7
20260506165511 15 0 0.0 9.7 0.13 0.15 0.15 90 1005.6
20260506165013 16 0 0.0 9.7 0.10 0.13 0.13 90 1005.6
20260506164530 16 0 0.0 16.1 0.10 0.13 0.13 90 1005.6
20260506164012 16 0 1.6 16.1 0.08 0.10 0.10 90 1005.6
20260506163511 16 256 1.6 9.7 0.08 0.08 0.08 89 1005.6
20260506163028 16 0 0.0 6.4 0.08 0.08 0.08 89 1005.6
20260506162511 16 0 0.0 6.4 0.05 0.05 0.05 89 1005.8
20260506162016 16 0 0.0 3.2 0.05 0.05 0.05 88 1005.9
20260506161528 16 0 0.0 3.2 0.05 0.05 0.05 88 1005.9
20260506161009 16 0 0.0 9.7 0.03 0.03 0.03 88 1005.9
20260506160516 16 0 0.0 9.7 0.03 0.03 0.03 88 1006.0
20260506160037 16 0 0.0 4.8 0.03 0.03 0.03 88 1005.9
20260506155512 16 0 0.0 12.9 0.03 0.03 0.03 88 1006.0
20260506155010 16 0 0.0 12.9 0.03 0.03 0.03 88 1006.0
20260506154532 16 211 1.6 12.9 0.03 0.03 0.03 87 1006.2
20260506154013 16 0 0.0 4.8 0.00 0.00 0.00 87 1006.4
20260506153513 16 0 0.0 1.6 0.00 0.00 0.00 87 1006.5
20260506153029 16 0 0.0 8.0 0.00 0.00 0.00 87 1006.6
20260506152514 16 0 0.0 9.7 0.00 0.00 0.00 86 1006.7
20260506152012 16 259 0.0 9.7 0.00 0.00 0.00 86 1006.7
20260506151531 16 0 0.0 6.4 0.00 0.00 0.00 86 1006.7
20260506151013 16 0 0.0 6.4 0.00 0.00 0.00 85 1006.9
20260506150510 16 0 0.0 6.4 0.00 0.00 0.00 85 1007.0
20260506150028 16 0 0.0 6.4 0.00 0.00 0.00 84 1007.1
20260506145510 16 0 0.0 3.2 0.00 0.00 0.00 84 1007.1
20260506145009 16 0 0.0 8.0 0.00 0.00 0.00 84 1007.1
20260506144530 16 0 0.0 8.0 0.00 0.00 0.00 84 1007.1
20260506144017 16 0 0.0 1.6 0.00 0.00 0.00 84 1007.1
20260506143516 15 0 0.0 1.6 0.00 0.00 0.00 84 1007.1
20260506143034 15 0 0.0 1.6 0.00 0.00 0.00 84 1006.9
20260506142513 15 0 0.0 1.6 0.00 0.00 0.00 84 1006.9
20260506142014 15 0 0.0 1.6 0.00 0.00 0.00 84 1006.8
20260506141528 15 0 0.0 1.6 0.00 0.00 0.00 84 1006.8
20260506141012 15 0 0.0 12.9 0.00 0.00 0.00 84 1006.8
20260506140515 15 0 0.0 12.9 0.00 0.00 0.00 85 1006.9
20260506140030 15 0 1.6 12.9 0.00 0.00 0.00 86 1006.8
20260506135513 15 135 0.0 12.9 0.00 0.00 0.00 86 1006.8
20260506135016 15 0 1.6 12.9 0.00 0.00 0.00 86 1006.8
20260506134529 15 0 0.0 8.0 0.00 0.00 0.00 86 1006.9
20260506134014 15 0 0.0 8.0 0.00 0.00 0.00 86 1006.7
20260506133512 15 0 0.0 12.9 0.00 0.00 0.00 87 1006.9
20260506133030 15 344 0.0 12.9 0.00 0.00 0.00 87 1007.0
20260506132514 15 211 1.6 12.9 0.00 0.00 0.00 87 1007.0
20260506132009 14 0 0.0 6.4 0.00 0.00 0.00 87 1006.9
20260506131544 14 0 0.0 6.4 0.00 0.00 0.00 88 1007.1
20260506131010 14 0 0.0 6.4 0.00 0.00 0.00 88 1007.1
20260506130516 14 0 0.0 4.8 0.00 0.00 0.00 88 1007.2
20260506130038 14 0 0.0 4.8 0.00 0.00 0.00 88 1007.3
20260506125511 14 0 0.0 4.8 0.00 0.03 0.00 88 1007.4
20260506125011 13 0 0.0 11.3 0.00 0.03 0.00 88 1007.5
20260506124527 13 0 0.0 12.9 0.00 0.03 0.00 88 1007.5
20260506124012 13 217 0.0 12.9 0.00 0.03 0.00 88 1007.6
20260506123511 13 165 1.6 12.9 0.00 0.03 0.00 88 1007.6
20260506123030 13 0 0.0 4.8 0.00 0.03 0.00 88 1007.5
20260506122512 13 0 0.0 4.8 0.00 0.03 0.00 88 1007.5
20260506122012 13 0 0.0 9.7 0.00 0.03 0.00 88 1007.5
20260506121529 13 0 0.0 9.7 0.00 0.03 0.00 88 1007.3
20260506121018 13 128 0.0 4.8 0.00 0.03 0.00 88 1007.2
20260506120514 13 0 0.0 4.8 0.00 0.03 0.00 88 1007.1
20260506120028 13 0 0.0 0.0 0.00 0.03 0.00 88 1007.3
20260506115510 13 0 0.0 0.0 0.00 0.03 0.00 89 1007.3
20260506115013 13 0 0.0 0.0 0.00 0.03 0.00 89 1007.3
20260506114528 13 0 0.0 1.6 0.00 0.03 0.00 89 1007.3
20260506114012 13 0 0.0 4.8 0.00 0.03 0.00 89 1007.5
20260506113515 13 0 0.0 6.4 0.00 0.03 0.00 89 1007.5
20260506113030 13 0 0.0 6.4 0.00 0.03 0.00 89 1007.7
20260506112510 13 0 0.0 6.4 0.00 0.03 0.00 89 1007.5
20260506112010 13 97 0.0 4.8 0.00 0.03 0.00 89 1007.4
20260506111529 13 0 0.0 4.8 0.00 0.03 0.00 89 1007.4
20260506111011 13 0 0.0 4.8 0.00 0.03 0.00 89 1007.5
20260506110511 12 0 0.0 4.8 0.00 0.03 0.00 89 1007.4
20260506110028 12 0 0.0 4.8 0.00 0.03 0.00 89 1007.5
20260506105511 12 0 0.0 9.7 0.00 0.03 0.00 89 1007.5
20260506105011 12 0 0.0 9.7 0.00 0.03 0.00 89 1007.5
20260506104530 12 0 0.0 4.8 0.00 0.03 0.00 88 1007.4
20260506104011 12 0 0.0 4.8 0.00 0.03 0.00 88 1007.4
20260506103512 12 0 0.0 1.6 0.00 0.03 0.00 88 1007.3
20260506103037 12 0 0.0 6.4 0.00 0.03 0.00 88 1007.3
20260506102512 12 0 0.0 6.4 0.00 0.03 0.00 87 1007.5
20260506102012 12 0 0.0 6.4 0.00 0.03 0.00 87 1007.4
20260506101530 12 0 0.0 0.0 0.00 0.03 0.00 87 1007.4
20260506101011 12 0 0.0 0.0 0.00 0.03 0.00 86 1007.3
20260506100512 12 0 0.0 0.0 0.00 0.03 0.00 86 1007.5